Brownwood, TX

7:39 AM CST on February 07, 2016 (GMT -0600)
Brownwood Regional

Weather History for KBWD - December, 2011

Change the Weather History Date:

Monday, December 26, 2011

  Actual Average (KABI) Record (KABI)
Temperature  
Mean Temperature 42 °F 44 °F  
Max Temperature 50 °F 56 °F 81 °F (2005)
Min Temperature 35 °F 33 °F 16 °F (1983)
Degree Days  
Heating Degree Days 22 21  
Month to date heating degree days 507  
Since 1 July heating degree days 940  
Cooling Degree Days 0 0  
Month to date cooling degree days 0  
Year to date cooling degree days 2408  
Moisture  
Dew Point 32 °F    
Average Humidity 67    
Maximum Humidity 87    
Minimum Humidity 43    
Precipitation  
Precipitation 0.00 in 0.04 in 0.61 in (2000)
Month to date precipitation 1.04  
Year to date precipitation 24.63  
Sea Level Pressure  
Sea Level Pressure 30.17 in    
Wind  
Wind Speed 8 mph (WNW)    
Max Wind Speed 20 mph    
Max Gust Speed 29 mph    
Visibility 10 miles    
Events      
T = Trace of Precipitation, MM = Missing Value Source: NWS Daily Summary

Daily Weather History Graph

Daily Weather History Graph

Search for Another Location

Airport or City:

Trip Planner

Search our weather history database for the weather conditions in past years. The results will help you decide how hot, cold, wet, or windy it might be!

Date:

Astronomy

Dec. 26, 2011 Rise Set
Actual Time 7:33 AM CST 5:38 PM CST
Civil Twilight 7:07 AM CST 6:05 PM CST
Nautical Twilight 6:36 AM CST 6:36 PM CST
Astronomical Twilight 6:06 AM CST 7:05 PM CST
Moon 9:01 AM CST (12/26) 8:00 PM CST (12/26)
Length of Visible Light 10h 58m
Length of Day
10h 04m
Waxing Crescent, 5% of the Moon is Illuminated
Dec 26
Waxing Crescent
Jan 1
First Quarter
Jan 9
Full
Jan 16
Last Quarter
Jan 23
New

Hourly Weather History & Observations

Time (CST) Temp. Windchill Dew Point Humidity Pressure Visibility Wind Dir Wind Speed Gust Speed Precip Events Conditions
12:15 AM 39.2 °F 37.0 °F 35.6 °F 87% 30.33 in 10.0 mi WNW 3.5 mph - N/A   Overcast
12:35 AM 41.0 °F 36.4 °F 37.4 °F 87% 30.32 in 10.0 mi NW 6.9 mph - N/A   Overcast
12:55 AM 41.0 °F 35.8 °F 37.4 °F 87% 30.31 in 10.0 mi NW 8.1 mph - N/A   Overcast
1:15 AM 41.0 °F 35.2 °F 35.6 °F 81% 30.31 in 10.0 mi WNW 9.2 mph - N/A   Overcast
1:35 AM 41.0 °F 34.7 °F 35.6 °F 81% 30.30 in 10.0 mi WNW 10.4 mph - N/A   Overcast
1:55 AM 41.0 °F 35.2 °F 35.6 °F 81% 30.29 in 10.0 mi WNW 9.2 mph - N/A   Overcast
2:15 AM 41.0 °F 35.8 °F 35.6 °F 81% 30.29 in 10.0 mi NW 8.1 mph - N/A   Overcast
2:35 AM 41.0 °F 37.1 °F 35.6 °F 81% 30.29 in 10.0 mi NW 5.8 mph - N/A   Overcast
2:55 AM 41.0 °F 36.4 °F 35.6 °F 81% 30.29 in 10.0 mi WNW 6.9 mph - N/A   Overcast
3:15 AM 41.0 °F 36.4 °F 35.6 °F 81% 30.28 in 10.0 mi NW 6.9 mph - N/A   Mostly Cloudy
3:35 AM 41.0 °F 36.4 °F 35.6 °F 81% 30.27 in 10.0 mi NW 6.9 mph - N/A   Overcast
4:15 AM 41.0 °F 37.1 °F 35.6 °F 81% 30.26 in 10.0 mi NW 5.8 mph - N/A   Overcast
4:35 AM 39.2 °F 34.2 °F 35.6 °F 87% 30.25 in 10.0 mi NW 6.9 mph - N/A   Overcast
4:55 AM 39.2 °F 35.9 °F 35.6 °F 87% 30.24 in 10.0 mi NW 4.6 mph - N/A   Overcast
5:15 AM 39.2 °F 35.0 °F 35.6 °F 87% 30.24 in 10.0 mi NW 5.8 mph - N/A   Overcast
5:35 AM 39.2 °F - 35.6 °F 87% 30.24 in 10.0 mi Calm Calm - N/A   Overcast
6:35 AM 39.2 °F 37.0 °F 35.6 °F 87% 30.23 in 10.0 mi West 3.5 mph - N/A   Overcast
6:55 AM 39.2 °F 37.0 °F 33.8 °F 81% 30.23 in 10.0 mi West 3.5 mph - N/A   Overcast
7:15 AM 39.2 °F - 33.8 °F 81% 30.22 in 10.0 mi Calm Calm - N/A   Overcast
7:35 AM 39.2 °F - 33.8 °F 81% 30.22 in 10.0 mi Calm Calm - N/A   Overcast
7:55 AM 39.2 °F 37.0 °F 35.6 °F 87% 30.22 in 10.0 mi WSW 3.5 mph - N/A   Overcast
8:15 AM 39.2 °F 37.0 °F 35.6 °F 87% 30.22 in 10.0 mi SW 3.5 mph - N/A   Overcast
8:35 AM 39.2 °F 37.0 °F 35.6 °F 87% 30.22 in 10.0 mi WSW 3.5 mph - N/A   Overcast
8:55 AM 41.0 °F 37.1 °F 33.8 °F 76% 30.21 in 10.0 mi WSW 5.8 mph - N/A   Overcast
9:15 AM 41.0 °F 36.4 °F 32.0 °F 70% 30.21 in 10.0 mi West 6.9 mph - N/A   Scattered Clouds
9:35 AM 42.8 °F 38.6 °F 32.0 °F 66% 30.20 in 10.0 mi West 6.9 mph - N/A   Clear
9:55 AM 44.6 °F 38.8 °F 32.0 °F 61% 30.20 in 10.0 mi WSW 11.5 mph - N/A   Clear
10:15 AM 44.6 °F 39.2 °F 32.0 °F 61% 30.20 in 10.0 mi West 10.4 mph - N/A   Partly Cloudy
10:35 AM 44.6 °F 38.4 °F 32.0 °F 61% 30.20 in 10.0 mi WSW 12.7 mph - N/A   Mostly Cloudy
10:55 AM 44.6 °F 38.1 °F 32.0 °F 61% 30.19 in 10.0 mi WSW 13.8 mph 20.7 mph N/A   Overcast
11:15 AM 44.6 °F 37.8 °F 32.0 °F 61% 30.18 in 10.0 mi WSW 15.0 mph 20.7 mph N/A   Overcast
11:35 AM 44.6 °F 37.2 °F 32.0 °F 61% 30.17 in 10.0 mi West 17.3 mph 20.7 mph N/A   Overcast
11:55 AM 46.4 °F 40.7 °F 32.0 °F 57% 30.16 in 10.0 mi West 12.7 mph - N/A   Mostly Cloudy
12:15 PM 46.4 °F 40.4 °F 30.2 °F 53% 30.14 in 10.0 mi West 13.8 mph 19.6 mph N/A   Mostly Cloudy
12:35 PM 48.2 °F - 30.2 °F 50% 30.13 in 10.0 mi West 13.8 mph 21.9 mph N/A   Scattered Clouds
12:55 PM 46.4 °F 39.0 °F 28.4 °F 50% 30.11 in 10.0 mi West 19.6 mph 23.0 mph N/A   Mostly Cloudy
1:15 PM 48.2 °F - 28.4 °F 46% 30.10 in 10.0 mi West 13.8 mph 23.0 mph N/A   Mostly Cloudy
1:35 PM 48.2 °F - 30.2 °F 50% 30.09 in 10.0 mi West 15.0 mph 21.9 mph N/A   Mostly Cloudy
1:55 PM 50.0 °F - 32.0 °F 50% 30.07 in 10.0 mi West 17.3 mph - N/A   Mostly Cloudy
2:15 PM 48.2 °F - 32.0 °F 54% 30.07 in 10.0 mi West 11.5 mph - N/A   Overcast
2:35 PM 48.2 °F - 30.2 °F 50% 30.07 in 10.0 mi West 17.3 mph 25.3 mph N/A   Overcast
2:55 PM 48.2 °F - 28.4 °F 46% 30.06 in 10.0 mi West 19.6 mph 25.3 mph N/A   Mostly Cloudy
3:15 PM 48.2 °F - 30.2 °F 50% 30.06 in 10.0 mi West 18.4 mph 28.8 mph N/A   Mostly Cloudy
3:35 PM 50.0 °F - 30.2 °F 47% 30.06 in 10.0 mi WNW 19.6 mph 25.3 mph N/A   Overcast
3:55 PM 50.0 °F - 30.2 °F 47% 30.06 in 10.0 mi West 18.4 mph 24.2 mph N/A   Overcast
4:15 PM 50.0 °F - 28.4 °F 43% 30.06 in 10.0 mi WNW 17.3 mph 27.6 mph N/A   Overcast
4:35 PM 48.2 °F - 28.4 °F 46% 30.06 in 10.0 mi WNW 16.1 mph 23.0 mph N/A   Mostly Cloudy
4:55 PM 50.0 °F - 28.4 °F 43% 30.06 in 10.0 mi WNW 16.1 mph 24.2 mph N/A   Partly Cloudy
5:15 PM 48.2 °F - 30.2 °F 50% 30.07 in 10.0 mi WNW 10.4 mph 17.3 mph N/A   Clear
5:35 PM 48.2 °F - 28.4 °F 46% 30.07 in 10.0 mi WNW 10.4 mph - N/A   Clear
5:55 PM 44.6 °F 40.7 °F 30.2 °F 57% 30.07 in 10.0 mi NW 6.9 mph - N/A   Clear
6:15 PM 44.6 °F 40.7 °F 30.2 °F 57% 30.07 in 10.0 mi NW 6.9 mph - N/A   Clear
6:35 PM 44.6 °F 40.2 °F 30.2 °F 57% 30.07 in 10.0 mi WNW 8.1 mph - N/A   Clear
6:55 PM 42.8 °F 38.6 °F 30.2 °F 61% 30.08 in 10.0 mi NW 6.9 mph - N/A   Clear
7:15 PM 41.0 °F - 30.2 °F 65% 30.09 in 10.0 mi Calm Calm - N/A   Clear
7:35 PM 39.2 °F - 28.4 °F 65% 30.10 in 10.0 mi Calm Calm - N/A   Clear
7:55 PM 41.0 °F - 30.2 °F 65% 30.10 in 10.0 mi Calm Calm - N/A   Clear
8:15 PM 35.6 °F - 30.2 °F 81% 30.11 in 10.0 mi Calm Calm - N/A   Clear
8:35 PM 35.6 °F - 30.2 °F 81% 30.12 in 10.0 mi Calm Calm - N/A   Clear
8:55 PM 37.4 °F - 30.2 °F 75% 30.12 in 10.0 mi Calm Calm - N/A   Clear
9:15 PM 35.6 °F 32.8 °F 30.2 °F 81% 30.14 in 10.0 mi NW 3.5 mph - N/A   Clear
9:35 PM 32.0 °F - 28.4 °F 87% 30.14 in 10.0 mi Calm Calm - N/A   Clear
9:55 PM 32.0 °F - 32.0 °F 100% 30.14 in 10.0 mi Calm Calm - N/A   Clear
10:15 PM 32.0 °F 28.7 °F 28.4 °F 87% 30.14 in 10.0 mi North 3.5 mph - N/A   Clear
10:35 PM 35.6 °F 31.7 °F 30.2 °F 81% 30.14 in 10.0 mi North 4.6 mph - N/A   Clear
10:55 PM 35.6 °F - 30.2 °F 81% 30.14 in 10.0 mi Calm Calm - N/A   Clear
11:15 PM 32.0 °F - 28.4 °F 87% 30.15 in 10.0 mi Calm Calm - N/A   Clear
11:35 PM 32.0 °F - 28.4 °F 87% 30.15 in 10.0 mi Calm Calm - N/A   Clear
11:55 PM 28.4 °F - 26.6 °F 93% 30.15 in 10.0 mi Calm Calm - N/A   Clear